Regional Weather Roundup
Issued by NWS

Home | Current Version | Previous Version | Graphics & Text | Print | Product List | Glossary On
Versions: 1 2 3 4 5 6 7 8 9 10 11 12 13 14 15 16 17 18 19 20 21 22 23 24 25 26 27 28 29 30 31 32 33 34 35 36 37 38 39 40 41 42 43 44 45 46 47 48 49 50
000
ASUS43 KTOP 300208
RWRKS

WEATHER ROUNDUP FOR KANSAS
NATIONAL WEATHER SERVICE GOODLAND KS
900 PM CDT SAT AUG 29 2015

NOTE:  "FAIR" INDICATES FEW OR NO CLOUDS BELOW 12,000 FEET WITH NO
SIGNIFICANT WEATHER AND/OR OBSTRUCTIONS TO VISIBILITY.

KSZ001>006-013>018-027>032-041>047-300300-
NORTHWEST KANSAS

CITY           SKY/WX    TMP DP  RH WIND       PRES   REMARKS
GOODLAND       CLEAR     69  47  45 S9        30.10R
HAYS           CLEAR     72  54  53 E8        30.05R
HILL CITY      CLEAR     70  55  59 SE5       30.06R
RUSSELL        CLEAR     67  62  84 E7        30.04R
$$

KSZ061>065-074>080-084>089-300300-
SOUTHWEST KANSAS

CITY           SKY/WX    TMP DP  RH WIND       PRES   REMARKS
DODGE CITY     CLEAR     68  53  58 CALM      30.07R
ELKHART          N/A     68  56  65 SE7         N/A
GARDEN CITY    CLEAR     71  57  61 SE8       30.08R
GREAT BEND     CLEAR     72  61  68 E7        30.04R
LIBERAL        CLEAR     75  52  43 SE6       30.11R
PRATT          CLEAR     70  61  73 E5        30.05S
$$

KSZ066>073-081>083-090>101-300300-
SOUTHEAST KANSAS

CITY           SKY/WX    TMP DP  RH WIND       PRES   REMARKS
CHANUTE        PTCLDY    72  66  81 N6        30.00R
COFFEYVILLE    CLEAR     73  68  84 NW5       29.98R
HUTCHINSON     CLEAR     66  60  81 NE3       30.05R
MEDICINE LODGE   N/A     69  63  81 E6        30.02R
NEWTON         CLOUDY    68  57  68 E3        30.07R
PARSONS        CLEAR     71  68  90 N3        30.00R
WICHITA INTL   PTCLDY    69  61  75 N7        30.03R
WICHITA JABRA  CLEAR     64  61  90 N6        30.03R
WICHITA MCCONL CLEAR     64  61  88 NE7       30.03R
$$

KSZ007>012-019>026-033>040-048>060-102>105-300300-
NORTHEAST KANSAS

CITY           SKY/WX    TMP DP  RH WIND       PRES   REMARKS
CONCORDIA      CLEAR     64  62  93 SE7       30.05R
EMPORIA        CLEAR     67  62  84 CALM      30.03R
LAWRENCE       CLOUDY    71  67  87 N7        30.02R
MANHATTAN      CLOUDY    69  64  84 CALM      30.03R
MARYSVILLE     CLOUDY   N/A N/A N/A E6        30.06R
OLATHE IND     PTCLDY    70  67  90 N7        30.03R
OLATHE EXE     PTCLDY    72  67  84 N5        30.02R
SALINA         CLEAR     70  61  73 E5        30.05R
TOPEKA BILLARD CLOUDY    72  66  81 NE5       30.03R
TOPEKA FORBES  CLOUDY    73  66  78 N3        30.03R
$$


USA.gov is the U.S. government's official web portal to all federal, state and local government web resources and services.